sat.trackr.live / text

‹ back to catalog

STARLINK-35078

NORAD 65523 · 2025-200D

PAYLOAD ACTIVE UNKNOWN

§ Identity

Operator
Country
US
Launch date
2025-09-06
Launch site
AFWTR
Launch vehicle
Mass (kg)
RCS (m²)

Purposes: comms

External: N2YO · Heavens-Above · Gunter

§ Orbital elements

Epoch: 2026-05-25T03:25:41.248128Z

Period
95.64 min
Inclination
97.4497°
Eccentricity
0.0001446
Mean motion
15.05645620 rev/d
Perigee alt
548.5 km
Apogee alt
550.5 km
Semi-major
6,927.7 km
B*
2.2463e-4
RAAN
214.7688°
Arg perigee
207.2326°
Mean anomaly
152.8825°
Rev number
4,063

§ Raw data

STARLINK-350781 65523U 25200D   26145.14283852  .00003184  00000+0  22463-3 0  99962 65523  97.4497 214.7688 0001446 207.2326 152.8825 15.05645620 40634

JSON: /api/v1/satellites/65523 · /tle

For live sub-satellite position, see the globe view (requires WebGL).

§ Visibility from observer

Set your observer location to see the next 7 days of passes ≥ 10°. The values pass through the URL so the page stays shareable.

No JS? Fill the form by hand. The geolocation button needs JavaScript.